QPF
0.00 0.00 0.00 0.00 0.00 0.00 0.00 0.00 0.00 0.00 0.00 0.00 0.00 0.00 0.00 0.00 0.00 0.02 0.01 0.00 0.00 0.00 0.00 0.00 0.00 0.00 0.00 0.00 0.00 0.00 0.00 0.00 0.00 0.00 0.00 0.00 0.01 0.00 0.00 0.00 0.00 0.00 0.00 0.00 0.00 0.00 0.00 0.00 0.00
0.00 0.00 0.01 0.01 0.00 0.00 0.00 0.00 0.00 0.00 0.00 0.00 0.00 0.00 0.00 0.00 0.00 0.00 0.01 0.00 0.00 0.00 0.00 0.00 0.00 0.00 0.00 0.00 0.00 0.00 0.00 0.00 0.00 0.01 0.01 0.00 0.00 0.01 0.00 0.01 0.01 0.00 0.00 0.00 0.00 0.00 0.00 0.00 0.00
0.00 0.01 0.35 0.02 0.01 0.00 0.01 0.00 0.00 0.00 0.00 0.00 0.00 0.00 0.00 0.00 0.00 0.00 0.02 0.02 0.03 0.01 0.00 0.00 0.00 0.00 0.00 0.00 0.00 0.00 0.00 0.00 0.00 0.01 0.00 0.01 0.00 0.00 0.00 0.00 0.00 0.00 0.01 0.02 0.00 0.00 0.00 0.00 0.04
0.00 0.12 0.27 0.11 0.03 0.01 0.01 0.00 0.00 0.00 0.00 0.01 0.00 0.10 0.03 0.00 0.00 0.00 0.01 0.01 0.09 0.03 0.00 0.00 0.00 0.00 0.00 0.00 0.00 0.00 0.00 0.00 0.00 0.00 0.00 0.00 0.00 0.00 0.00 0.00 0.00 0.01 0.01 0.05 0.01 0.00 0.00 0.00 0.00
0.00 0.08 0.05 0.17 0.04 0.02 0.01 0.01 0.00 0.00 0.10 0.06 0.10 0.50 0.03 0.00 0.00 0.00 0.00 0.00 0.01 0.01 0.00 0.00 0.00 0.00 0.00 0.00 0.00 0.00 0.00 0.00 0.00 0.00 0.00 0.00 0.00 0.00 0.00 0.00 0.00 0.00 0.00 0.01 0.06 0.00 0.01 0.00 0.00
0.00 0.04 0.01 0.01 0.01 0.02 0.01 0.02 0.02 0.00 0.07 0.04 0.02 0.02 0.01 0.00 0.00 0.00 0.00 0.00 0.00 0.00 0.00 0.00 0.00 0.00 0.00 0.00 0.00 0.00 0.00 0.00 0.00 0.00 0.00 0.00 0.00 0.00 0.00 0.00 0.00 0.00 0.00 0.00 0.01 0.00 0.01 0.00 0.04
0.00 0.03 0.07 0.04 0.01 0.00 0.00 0.00 0.01 0.00 0.00 0.01 0.00 0.01 0.01 0.02 0.00 0.00 0.00 0.00 0.00 0.01 0.00 0.00 0.00 0.00 0.00 0.00 0.00 0.00 0.00 0.00 0.00 0.00 0.00 0.00 0.00 0.00 0.00 0.00 0.00 0.00 0.00 0.00 0.00 0.00 0.01 0.00 0.01
0.00 0.00 0.10 0.08 0.00 0.00 0.00 0.00 0.00 0.00 0.00 0.01 0.06 0.08 0.01 0.01 0.00 0.00 0.00 0.02 0.02 0.04 0.01 0.00 0.00 0.00 0.00 0.00 0.00 0.00 0.00 0.00 0.00 0.00 0.00 0.00 0.00 0.00 0.00 0.00 0.00 0.00 0.00 0.00 0.00 0.00 0.01 0.00 0.00
0.00 0.00 0.02 0.02 0.00 0.00 0.00 0.00 0.00 0.00 0.00 0.02 0.01 0.20 0.05 0.00 0.00 0.00 0.00 0.00 0.01 0.06 0.02 0.00 0.00 0.00 0.00 0.00 0.00 0.00 0.00 0.00 0.00 0.00 0.00 0.00 0.00 0.00 0.00 0.01 0.00 0.00 0.00 0.00 0.00 0.00 0.01 0.01 0.00
0.00 0.00 0.00 0.00 0.00 0.00 0.00 0.00 0.00 0.00 0.01 0.01 0.00 0.03 0.01 0.00 0.00 0.00 0.00 0.00 0.00 0.00 0.02 0.00 0.00 0.00 0.00 0.01 0.03 0.02 0.00 0.00 0.00 0.00 0.00 0.02 0.01 0.02 0.00 0.02 0.03 0.00 0.00 0.00 0.00 0.01 0.01 0.00 0.00
0.00 0.00 0.00 0.00 0.00 0.00 0.00 0.00 0.00 0.00 0.00 0.00 0.00 0.00 0.00 0.00 0.00 0.00 0.00 0.00 0.00 0.00 0.00 0.00 0.00 0.00 0.03 0.06 0.03 0.04 0.02 0.04 0.07 0.10 0.10 0.07 0.02 0.01 0.00 0.00 0.02 0.01 0.01 0.00 0.01 0.01 0.02 0.02 0.00
0.00 0.00 0.00 0.00 0.00 0.00 0.00 0.00 0.00 0.00 0.00 0.00 0.00 0.00 0.00 0.00 0.00 0.00 0.00 0.00 0.00 0.00 0.00 0.00 0.00 0.01 0.02 0.02 0.03 0.11 0.14 0.07 0.06 0.01 0.01 0.00 0.06 0.01 0.00 0.01 0.02 0.01 0.00 0.01 0.01 0.04 0.02 0.00 0.01
0.00 0.00 0.00 0.00 0.00 0.00 0.00 0.00 0.00 0.00 0.00 0.00 0.00 0.00 0.00 0.00 0.00 0.00 0.00 0.00 0.00 0.00 0.00 0.00 0.00 0.00 0.01 0.00 0.03 0.03 0.04 0.21 0.22 0.13 0.11 0.01 0.01 0.01 0.00 0.02 0.01 0.04 0.01 0.04 0.01 0.05 0.10 0.04 0.02
0.00 0.00 0.00 0.00 0.00 0.00 0.00 0.00 0.00 0.00 0.00 0.01 0.00 0.00 0.00 0.02 0.00 0.00 0.00 0.00 0.00 0.00 0.00 0.00 0.00 0.00 0.00 0.00 0.00 0.00 0.02 0.06 0.20 0.22 0.07 0.03 0.02 0.01 0.03 0.01 0.01 0.05 0.07 0.03 0.03 0.00 0.04 0.06 0.01
0.00 0.00 0.00 0.00 0.00 0.00 0.00 0.00 0.00 0.00 0.00 0.03 0.01 0.00 0.00 0.03 0.01 0.00 0.00 0.00 0.00 0.00 0.00 0.00 0.00 0.00 0.00 0.00 0.00 0.00 0.02 0.02 0.03 0.07 0.01 0.00 0.00 0.00 0.01 0.02 0.02 0.01 0.02 0.00 0.01 0.00 0.01 0.01 0.00
0.00 0.00 0.00 0.00 0.00 0.00 0.00 0.00 0.00 0.00 0.01 0.06 0.11 0.00 0.00 0.03 0.02 0.00 0.00 0.00 0.00 0.00 0.00 0.00 0.00 0.00 0.00 0.00 0.00 0.00 0.00 0.02 0.02 0.00 0.00 0.00 0.00 0.00 0.00 0.01 0.00 0.00 0.02 0.00 0.00 0.03 0.01 0.00 0.01
0.00 0.00 0.00 0.01 0.00 0.00 0.00 0.00 0.00 0.05 0.09 0.09 0.23 0.13 0.06 0.03 0.02 0.00 0.00 0.00 0.00 0.00 0.00 0.00 0.00 0.00 0.00 0.00 0.00 0.01 0.00 0.00 0.01 0.05 0.03 0.07 0.03 0.01 0.00 0.01 0.00 0.00 0.00 0.02 0.01 0.02 0.06 0.05 0.01
0.00 0.00 0.02 0.07 0.02 0.00 0.00 0.00 0.00 0.02 0.01 0.04 0.30 0.52 0.20 0.09 0.02 0.00 0.00 0.00 0.00 0.00 0.00 0.00 0.00 0.00 0.00 0.00 0.00 0.00 0.00 0.01 0.00 0.01 0.00 0.02 0.07 0.10 0.04 0.01 0.02 0.01 0.00 0.03 0.02 0.00 0.03 0.06 0.02
0.00 0.00 0.00 0.00 0.00 0.00 0.00 0.00 0.00 0.00 0.01 0.01 0.06 0.88 0.50 0.05 0.08 0.01 0.00 0.00 0.00 0.00 0.00 0.00 0.01 0.02 0.01 0.01 0.01 0.02 0.03 0.06 0.08 0.07 0.02 0.10 0.16 0.12 0.07 0.03 0.03 0.01 0.00 0.00 0.09 0.05 0.04 0.03 0.02
0.00 0.00 0.00 0.00 0.00 0.00 0.00 0.00 0.00 0.00 0.01 0.01 0.01 0.07 0.22 0.04 0.08 0.12 0.17 0.16 0.00 0.00 0.00 0.00 0.02 0.04 0.02 0.01 0.03 0.03 0.03 0.05 0.04 0.09 0.06 0.04 0.06 0.06 0.07 0.04 0.03 0.03 0.01 0.01 0.03 0.05 0.03 0.04 0.03
0.00 0.00 0.00 0.00 0.00 0.00 0.00 0.00 0.00 0.00 0.00 0.00 0.00 0.03 0.11 0.09 0.07 0.24 0.74 1.28 0.17 0.01 0.00 0.00 0.00 0.01 0.02 0.03 0.03 0.03 0.05 0.05 0.06 0.05 0.02 0.03 0.06 0.03 0.10 0.13 0.05 0.07 0.03 0.01 0.06 0.02 0.00 0.02 0.04
0.00 0.00 0.00 0.00 0.00 0.00 0.00 0.00 0.00 0.00 0.00 0.00 0.03 0.02 0.02 0.10 0.02 0.06 0.27 0.22 0.13 0.04 0.00 0.00 0.00 0.00 0.00 0.01 0.04 0.01 0.01 0.02 0.04 0.01 0.03 0.00 0.02 0.04 0.05 0.08 0.07 0.08 0.04 0.05 0.05 0.05 0.01 0.00 0.01
0.00 0.00 0.00 0.00 0.00 0.00 0.00 0.00 0.00 0.00 0.00 0.00 0.00 0.06 0.09 0.04 0.01 0.01 0.03 0.11 0.05 0.01 0.00 0.00 0.00 0.00 0.00 0.00 0.02 0.02 0.00 0.00 0.03 0.03 0.03 0.04 0.02 0.00 0.01 0.01 0.02 0.04 0.06 0.08 0.08 0.16 0.05 0.00 0.00
0.00 0.00 0.00 0.00 0.00 0.00 0.00 0.00 0.00 0.00 0.00 0.00 0.00 0.01 0.00 0.01 0.00 0.00 0.00 0.01 0.00 0.00 0.00 0.00 0.00 0.00 0.00 0.00 0.00 0.00 0.00 0.02 0.04 0.07 0.07 0.06 0.08 0.08 0.01 0.01 0.00 0.01 0.06 0.18 0.00 0.05 0.12 0.02 0.02
0.00 0.00 0.00 0.00 0.00 0.00 0.00 0.00 0.00 0.00 0.00 0.00 0.00 0.00 0.00 0.00 0.00 0.00 0.00 0.00 0.03 0.01 0.00 0.00 0.00 0.00 0.00 0.00 0.00 0.00 0.00 0.01 0.01 0.01 0.02 0.07 0.07 0.07 0.05 0.01 0.01 0.00 0.04 0.11 0.00 0.02 0.12 0.05 0.03
0.00 0.00 0.00 0.00 0.00 0.00 0.00 0.00 0.00 0.09 0.02 0.00 0.00 0.00 0.00 0.00 0.02 0.01 0.00 0.01 0.04 0.02 0.00 0.00 0.00 0.00 0.00 0.00 0.00 0.00 0.00 0.00 0.01 0.02 0.04 0.03 0.02 0.03 0.04 0.01 0.01 0.01 0.09 0.10 0.10 0.20 0.15 0.12 0.07
0.00 0.00 0.00 0.00 0.00 0.00 0.00 0.00 0.00 0.02 0.01 0.00 0.00 0.00 0.00 0.00 0.01 0.00 0.00 0.00 0.01 0.00 0.00 0.00 0.00 0.00 0.00 0.00 0.00 0.00 0.00 0.00 0.03 0.03 0.01 0.04 0.02 0.01 0.02 0.01 0.02 0.03 0.16 0.18 0.25 0.17 0.06 0.05 0.01
0.00 0.00 0.00 0.00 0.00 0.00 0.00 0.00 0.02 0.11 0.02 0.00 0.00 0.00 0.00 0.00 0.02 0.02 0.01 0.02 0.00 0.00 0.00 0.00 0.00 0.00 0.00 0.00 0.00 0.00 0.00 0.00 0.00 0.00 0.00 0.03 0.02 0.04 0.02 0.09 0.11 0.09 0.23 0.31 0.14 0.04 0.05 0.08 0.11
0.00 0.00 0.00 0.00 0.00 0.00 0.00 0.00 0.00 0.01 0.01 0.00 0.01 0.13 0.02 0.04 0.03 0.01 0.01 0.01 0.00 0.00 0.00 0.00 0.00 0.00 0.00 0.00 0.00 0.00 0.00 0.00 0.00 0.00 0.00 0.00 0.00 0.00 0.00 0.05 0.13 0.18 0.21 0.21 0.29 0.28 0.21 0.11 0.06
0.00 0.00 0.00 0.00 0.00 0.00 0.00 0.00 0.00 0.00 0.00 0.01 0.05 0.12 0.19 0.06 0.06 0.03 0.00 0.00 0.00 0.00 0.00 0.00 0.00 0.00 0.00 0.00 0.00 0.00 0.00 0.00 0.00 0.00 0.00 0.00 0.00 0.00 0.01 0.05 0.03 0.05 0.06 0.13 0.11 0.13 0.11 0.07 0.03
MSLP
1007.33 1006.93 1007.53 1007.70 1008.28 1008.11 1005.87 1004.14 1002.88 1002.97 1003.40 1003.67 1004.15 1004.81 1005.89 1006.25 1006.45 1007.85 1008.15 1008.46 1009.59 1010.36 1010.91 1011.35 1011.66 1011.88 1011.94 1012.20 1012.67 1013.14 1013.57 1013.87 1014.30 1014.61 1014.68 1014.84 1015.22 1015.59 1015.67 1015.89 1016.09 1016.31 1016.48 1016.69 1016.93 1017.10 1017.28 1017.36 1017.45
1006.97 1006.09 1007.10 1008.48 1009.10 1008.59 1005.94 1003.95 1003.44 1003.78 1003.91 1004.07 1004.87 1005.43 1005.92 1006.55 1006.54 1007.40 1008.51 1008.98 1009.79 1010.61 1011.02 1011.35 1011.73 1011.93 1012.01 1012.29 1012.68 1013.07 1013.48 1013.86 1014.33 1014.68 1014.90 1015.12 1015.41 1015.60 1015.92 1016.00 1016.11 1016.36 1016.54 1016.86 1017.00 1017.18 1017.36 1017.55 1017.69
1007.36 1006.86 1007.66 1010.31 1010.23 1009.46 1007.29 1004.10 1003.86 1004.66 1005.10 1005.09 1005.77 1006.13 1007.23 1006.77 1006.70 1007.07 1008.14 1009.42 1009.60 1010.37 1011.07 1011.45 1011.60 1011.83 1012.00 1012.28 1012.62 1013.06 1013.50 1013.84 1014.22 1014.63 1014.92 1015.17 1015.50 1015.76 1015.92 1016.23 1016.13 1016.28 1016.56 1016.78 1017.01 1017.23 1017.40 1017.64 1017.85
1007.65 1008.63 1010.95 1011.32 1010.58 1009.06 1007.62 1006.10 1003.12 1005.34 1007.30 1007.44 1006.87 1007.35 1007.20 1006.75 1006.71 1007.38 1008.63 1009.06 1009.69 1010.80 1011.08 1011.30 1011.52 1011.86 1012.01 1012.42 1012.72 1013.09 1013.50 1013.88 1014.19 1014.48 1014.81 1015.12 1015.36 1015.72 1015.97 1016.24 1016.38 1016.41 1016.46 1016.83 1016.96 1017.12 1017.36 1017.59 1017.85
1007.75 1009.55 1011.42 1011.67 1010.74 1008.85 1005.67 1004.92 1004.95 1006.65 1008.69 1009.63 1008.35 1009.01 1008.41 1007.55 1007.38 1007.48 1008.19 1009.10 1010.05 1011.34 1010.90 1011.16 1011.39 1011.92 1012.29 1012.57 1012.93 1013.22 1013.55 1013.90 1014.31 1014.70 1014.97 1015.18 1015.44 1015.73 1015.97 1016.17 1016.46 1016.49 1016.55 1016.71 1016.95 1017.16 1017.28 1017.48 1017.75
1007.64 1009.60 1011.24 1011.48 1010.08 1006.20 1005.22 1004.10 1006.14 1006.31 1008.20 1009.20 1008.84 1009.59 1009.16 1008.72 1007.74 1007.97 1008.58 1009.30 1009.95 1010.79 1011.16 1011.18 1011.56 1012.06 1012.42 1012.74 1013.10 1013.38 1013.68 1013.96 1014.28 1014.72 1015.06 1015.30 1015.54 1015.76 1016.05 1016.22 1016.34 1016.69 1016.71 1016.69 1016.92 1017.21 1017.25 1017.34 1017.66
1007.50 1010.06 1011.97 1011.37 1009.66 1006.95 1004.29 1002.85 1004.84 1006.51 1008.12 1007.94 1008.41 1008.88 1008.80 1008.34 1007.95 1008.28 1008.96 1009.34 1009.95 1010.65 1011.09 1011.63 1011.95 1012.33 1012.56 1012.75 1013.06 1013.38 1013.72 1014.01 1014.36 1014.72 1015.08 1015.37 1015.62 1015.82 1015.95 1016.28 1016.43 1016.60 1016.83 1016.79 1017.00 1017.17 1017.42 1017.32 1017.58
1006.75 1009.27 1010.94 1009.41 1007.61 1006.56 1004.01 1003.03 1004.05 1005.06 1007.02 1006.97 1007.02 1008.38 1008.59 1008.05 1007.62 1008.71 1009.19 1009.49 1010.27 1010.91 1011.38 1011.70 1012.14 1012.39 1012.77 1012.98 1013.21 1013.51 1013.74 1014.10 1014.57 1014.94 1015.24 1015.51 1015.76 1015.99 1016.04 1016.23 1016.44 1016.51 1016.79 1016.83 1017.04 1017.17 1017.37 1017.49 1017.49
1005.98 1008.57 1009.23 1007.86 1006.80 1005.37 1003.50 1003.69 1004.72 1004.62 1005.51 1006.55 1006.60 1006.48 1006.86 1007.33 1008.11 1008.86 1009.45 1009.88 1010.77 1011.16 1011.28 1011.71 1012.02 1012.33 1012.55 1012.92 1013.18 1013.46 1013.76 1014.24 1014.58 1015.05 1015.51 1015.78 1016.06 1016.11 1016.34 1016.24 1016.36 1016.44 1016.49 1016.78 1016.95 1017.15 1017.35 1017.50 1017.48
1005.64 1006.64 1006.59 1005.67 1005.29 1004.23 1003.01 1003.57 1004.07 1005.22 1004.78 1006.18 1006.76 1006.62 1006.72 1007.31 1008.29 1009.04 1009.34 1009.98 1010.70 1011.16 1011.47 1011.83 1011.96 1012.09 1012.26 1012.63 1013.31 1013.76 1013.99 1014.34 1014.74 1015.13 1015.46 1015.80 1016.00 1016.21 1016.24 1016.38 1016.26 1016.24 1016.38 1016.64 1016.88 1016.98 1017.27 1017.67 1017.66
1004.64 1005.32 1004.51 1004.08 1003.81 1003.48 1002.90 1002.88 1003.33 1004.69 1004.69 1005.17 1005.56 1005.64 1006.45 1007.29 1008.33 1008.99 1009.36 1009.77 1010.33 1010.90 1011.17 1011.47 1011.82 1011.76 1012.13 1012.87 1013.55 1013.93 1014.48 1014.67 1014.93 1015.32 1015.56 1015.95 1015.99 1016.05 1016.28 1016.44 1016.27 1016.28 1016.32 1016.43 1016.87 1017.00 1017.20 1017.72 1017.90
1003.95 1003.41 1003.32 1002.48 1003.02 1002.83 1002.27 1001.95 1003.08 1002.68 1002.93 1003.63 1004.63 1005.10 1006.02 1006.98 1007.90 1008.81 1009.10 1009.64 1010.02 1010.56 1010.75 1011.06 1011.52 1011.86 1012.14 1012.64 1013.22 1013.47 1013.87 1014.22 1014.69 1014.67 1014.99 1015.66 1016.29 1016.38 1016.31 1016.49 1016.41 1016.44 1016.48 1016.38 1016.83 1017.00 1017.14 1017.50 1017.67
1003.12 1002.64 1002.12 1001.67 1001.63 1001.19 1000.97 1001.63 1001.85 1002.53 1003.12 1004.09 1005.18 1005.62 1006.05 1006.80 1007.19 1007.98 1008.45 1009.07 1009.54 1010.18 1010.58 1010.97 1011.36 1011.64 1012.23 1012.67 1012.97 1013.81 1013.83 1013.87 1014.20 1014.81 1015.25 1015.40 1015.96 1016.32 1016.19 1016.42 1016.39 1016.31 1016.35 1016.50 1016.53 1016.80 1017.02 1017.41 1017.46
1002.69 1002.26 1001.87 1001.75 1001.46 1001.25 1001.51 1001.73 1001.70 1003.06 1003.19 1004.35 1005.19 1005.69 1006.01 1006.57 1006.93 1007.69 1008.15 1008.63 1009.35 1009.66 1010.22 1010.72 1011.12 1011.39 1011.87 1012.51 1013.07 1013.67 1013.85 1013.73 1013.84 1014.12 1014.16 1015.03 1015.62 1016.15 1016.05 1016.12 1016.30 1016.22 1016.13 1016.43 1016.20 1016.55 1016.88 1017.06 1017.30
1002.88 1002.61 1002.25 1003.38 1002.94 1002.17 1001.90 1002.19 1002.39 1002.83 1003.40 1003.70 1004.37 1004.29 1005.51 1005.85 1006.18 1006.93 1007.44 1008.29 1008.93 1009.37 1009.88 1010.39 1010.75 1011.12 1011.73 1012.39 1012.81 1012.98 1013.31 1013.60 1013.79 1013.89 1014.22 1014.41 1015.03 1015.44 1015.63 1015.82 1016.30 1015.96 1015.84 1015.97 1016.12 1016.36 1016.63 1017.02 1017.21
1003.46 1003.13 1003.63 1003.72 1003.01 1002.41 1003.20 1002.77 1002.31 1002.68 1003.46 1005.03 1005.07 1005.40 1005.00 1006.05 1006.05 1006.76 1007.57 1008.42 1009.09 1009.78 1010.25 1010.49 1010.74 1010.94 1011.36 1011.82 1012.31 1012.52 1012.88 1013.23 1013.47 1013.55 1013.74 1013.91 1014.59 1014.97 1015.25 1015.61 1015.85 1015.56 1015.70 1015.86 1016.10 1016.39 1016.73 1017.07 1017.30
1004.08 1004.56 1005.58 1005.63 1002.86 1003.26 1003.69 1003.39 1002.50 1001.99 1002.02 1005.36 1008.45 1009.39 1006.67 1006.39 1006.60 1006.37 1006.87 1007.68 1008.65 1009.47 1010.16 1010.63 1010.89 1011.10 1011.18 1011.69 1012.21 1012.50 1012.34 1012.66 1013.08 1013.65 1013.79 1013.82 1014.15 1014.42 1014.67 1014.89 1015.21 1015.20 1015.41 1015.75 1016.06 1016.50 1016.74 1017.01 1017.28
1004.14 1005.17 1005.88 1005.99 1003.60 1002.70 1003.15 1003.18 1003.32 1002.45 1003.91 1007.33 1010.08 1010.83 1008.85 1009.38 1007.24 1006.79 1006.47 1007.42 1008.51 1009.06 1009.52 1010.35 1010.95 1011.32 1011.42 1011.51 1011.98 1012.41 1012.60 1012.61 1012.48 1012.79 1012.91 1012.97 1013.34 1013.82 1014.37 1014.46 1014.69 1014.91 1015.38 1015.77 1016.09 1016.48 1016.74 1016.93 1017.02
1003.47 1003.60 1004.71 1004.66 1003.90 1003.98 1003.46 1003.12 1003.13 1004.09 1005.48 1007.73 1008.05 1009.44 1011.36 1008.42 1008.71 1007.36 1007.00 1006.82 1007.86 1009.19 1009.41 1009.55 1010.38 1010.98 1011.36 1011.60 1012.06 1012.57 1012.74 1012.79 1012.93 1012.80 1012.71 1012.83 1012.99 1013.32 1013.90 1014.37 1014.41 1014.56 1015.14 1015.65 1015.77 1016.25 1016.69 1016.96 1016.81
1002.57 1002.82 1003.06 1002.84 1002.65 1003.92 1003.13 1002.58 1003.20 1003.38 1003.92 1003.84 1007.54 1009.77 1009.61 1008.76 1009.50 1009.50 1010.68 1008.96 1007.67 1008.34 1009.69 1009.87 1010.10 1010.72 1011.32 1011.70 1011.92 1012.34 1012.60 1012.64 1012.72 1012.65 1012.57 1012.70 1012.93 1013.22 1013.56 1013.77 1014.11 1014.43 1014.89 1015.27 1015.66 1015.97 1016.54 1016.65 1016.57
1001.90 1002.01 1002.11 1002.20 1002.00 1002.40 1002.40 1002.46 1003.11 1003.54 1004.25 1004.96 1006.63 1007.51 1006.60 1007.46 1010.69 1009.78 1010.51 1009.75 1009.51 1008.57 1009.28 1009.64 1010.01 1010.56 1011.10 1011.45 1011.78 1012.33 1012.65 1012.87 1012.88 1012.69 1012.69 1012.50 1012.53 1012.76 1012.93 1013.20 1013.69 1014.21 1014.51 1014.87 1015.17 1015.57 1015.99 1016.43 1016.51
1001.44 1001.22 1001.26 1001.63 1002.23 1002.88 1002.58 1003.41 1003.90 1004.43 1004.37 1004.39 1004.15 1003.51 1004.75 1004.41 1005.60 1007.33 1008.63 1008.78 1010.13 1008.73 1009.04 1009.35 1009.99 1010.60 1011.03 1011.16 1011.59 1012.19 1012.64 1013.14 1012.93 1012.84 1012.61 1012.34 1012.23 1012.41 1012.57 1012.80 1013.26 1013.91 1014.19 1014.55 1014.80 1015.10 1015.45 1015.84 1016.41
1000.81 1000.82 1001.28 1001.69 1002.73 1003.38 1003.51 1004.07 1004.71 1004.66 1004.70 1004.25 1003.91 1004.32 1003.95 1005.60 1005.99 1007.22 1008.42 1008.94 1007.89 1008.33 1009.40 1010.01 1010.72 1010.99 1011.28 1011.20 1011.65 1012.20 1012.43 1012.60 1012.45 1012.30 1012.21 1011.95 1011.91 1011.94 1012.14 1012.42 1012.94 1013.57 1013.90 1014.15 1014.56 1014.75 1015.00 1015.35 1015.86
1000.38 1000.93 1001.66 1002.25 1003.60 1004.72 1004.19 1004.37 1005.15 1004.58 1004.09 1004.17 1004.06 1004.14 1004.53 1005.43 1005.60 1006.06 1006.64 1007.08 1007.86 1008.77 1009.69 1010.52 1011.04 1011.29 1011.23 1011.53 1012.13 1012.54 1012.68 1012.64 1012.35 1012.10 1011.93 1011.57 1011.46 1011.63 1011.91 1012.11 1012.64 1013.06 1013.58 1013.80 1014.08 1014.27 1014.61 1014.99 1015.41
1000.36 1001.74 1003.11 1004.30 1004.90 1005.24 1004.49 1004.42 1005.08 1004.32 1003.22 1003.34 1003.77 1004.19 1005.34 1005.18 1005.73 1006.41 1006.88 1007.60 1008.74 1009.43 1010.28 1010.92 1011.12 1011.14 1011.15 1011.91 1012.39 1012.56 1012.75 1012.53 1012.31 1012.13 1011.68 1011.35 1011.40 1011.48 1011.65 1011.96 1012.36 1012.78 1013.12 1013.45 1013.63 1013.94 1014.02 1014.48 1015.04
1000.68 1001.91 1003.63 1004.76 1005.36 1005.33 1004.70 1004.69 1006.67 1004.79 1004.13 1003.58 1003.69 1004.01 1004.95 1005.77 1006.36 1006.91 1007.21 1007.89 1008.73 1009.39 1010.10 1010.57 1010.67 1010.98 1011.58 1012.09 1012.50 1012.57 1012.62 1012.40 1012.21 1011.92 1011.56 1011.34 1011.39 1011.51 1011.61 1011.83 1012.10 1012.48 1012.82 1013.11 1013.33 1013.58 1013.92 1014.19 1014.77
1000.31 1001.58 1002.35 1004.19 1005.12 1005.54 1005.31 1005.08 1005.41 1005.97 1005.35 1004.23 1004.33 1004.38 1005.38 1006.11 1006.60 1007.21 1007.45 1007.81 1008.20 1008.74 1009.57 1010.07 1010.49 1010.99 1011.57 1012.16 1012.40 1012.61 1012.62 1012.43 1012.43 1012.14 1011.59 1011.41 1011.33 1011.36 1011.47 1011.69 1011.96 1012.32 1012.56 1012.90 1013.08 1013.25 1013.66 1014.07 1014.81
999.78 1000.75 1002.38 1003.79 1005.44 1006.16 1005.86 1006.56 1006.79 1007.16 1006.86 1005.46 1004.69 1005.16 1005.92 1005.98 1006.31 1007.12 1007.87 1008.16 1008.42 1008.83 1009.50 1010.11 1010.52 1011.13 1011.67 1012.03 1012.36 1012.65 1012.68 1012.73 1012.65 1012.37 1012.19 1011.89 1011.60 1011.52 1011.48 1011.56 1011.72 1012.07 1012.38 1012.55 1012.90 1013.27 1013.72 1014.30 1014.80
999.79 1000.61 1001.93 1003.46 1004.83 1005.86 1006.60 1007.03 1006.20 1006.59 1007.41 1006.85 1006.23 1007.16 1005.41 1006.13 1006.30 1006.81 1007.50 1008.25 1008.82 1009.22 1009.59 1010.18 1010.65 1011.25 1011.82 1012.03 1012.31 1012.62 1012.79 1012.77 1012.78 1012.70 1012.50 1012.21 1012.09 1012.03 1011.99 1011.84 1011.92 1012.00 1012.17 1012.47 1013.00 1013.41 1013.96 1014.70 1015.28
998.75 1000.03 1001.25 1003.10 1004.42 1005.15 1006.00 1007.66 1006.90 1007.56 1007.02 1006.65 1006.25 1007.05 1008.22 1006.19 1006.58 1007.19 1007.30 1007.90 1008.67 1009.48 1009.76 1010.27 1010.84 1011.32 1011.80 1011.95 1012.11 1012.52 1012.74 1012.70 1012.78 1012.85 1012.76 1012.68 1012.61 1012.55 1012.54 1012.54 1012.55 1012.61 1012.73 1012.90 1013.42 1014.00 1014.57 1015.03 1015.57
Thickness
5843 5849 5846 5833 5798 5784 5794 5817 5842 5825 5820 5835 5838 5822 5806 5807 5794 5763 5819 5819 5812 5805 5799 5796 5794 5793 5794 5793 5790 5788 5785 5784 5781 5779 5779 5777 5774 5771 5770 5768 5768 5767 5767 5766 5764 5764 5764 5763 5764
5847 5855 5840 5808 5777 5758 5795 5836 5827 5828 5831 5836 5830 5823 5811 5794 5816 5810 5807 5813 5806 5801 5798 5796 5792 5791 5792 5790 5788 5786 5785 5783 5779 5777 5777 5775 5773 5771 5768 5769 5769 5767 5767 5765 5765 5762 5762 5762 5762
5843 5853 5816 5780 5765 5758 5768 5833 5836 5823 5830 5831 5820 5823 5807 5802 5818 5816 5817 5807 5811 5802 5797 5794 5793 5792 5790 5789 5787 5785 5783 5781 5779 5776 5774 5773 5771 5769 5768 5766 5769 5767 5767 5767 5765 5763 5761 5762 5760
5833 5820 5795 5767 5760 5780 5788 5806 5851 5818 5807 5814 5813 5802 5817 5829 5821 5820 5813 5812 5810 5797 5793 5794 5793 5790 5790 5787 5786 5783 5781 5778 5776 5775 5773 5771 5770 5768 5767 5765 5766 5766 5766 5766 5765 5764 5761 5762 5761
5831 5798 5760 5756 5763 5787 5821 5829 5823 5799 5777 5784 5804 5782 5794 5819 5826 5824 5820 5812 5799 5788 5796 5795 5794 5789 5786 5784 5782 5780 5778 5776 5774 5772 5770 5769 5767 5766 5765 5764 5763 5765 5766 5766 5766 5764 5762 5763 5762
5810 5796 5764 5751 5776 5817 5822 5843 5804 5808 5796 5792 5797 5782 5790 5815 5824 5821 5820 5811 5807 5799 5794 5794 5791 5787 5784 5781 5779 5777 5776 5774 5772 5769 5766 5765 5764 5763 5763 5762 5763 5761 5763 5765 5765 5763 5762 5764 5764
5803 5775 5745 5754 5774 5799 5834 5867 5819 5807 5800 5803 5808 5788 5802 5812 5823 5821 5818 5814 5807 5800 5795 5789 5786 5783 5781 5781 5779 5776 5775 5772 5769 5766 5764 5762 5761 5761 5761 5761 5761 5761 5760 5763 5762 5762 5761 5763 5764
5816 5786 5758 5775 5790 5793 5837 5859 5848 5831 5808 5828 5825 5793 5792 5809 5823 5813 5813 5813 5802 5797 5792 5787 5782 5781 5778 5777 5776 5775 5773 5770 5765 5761 5760 5759 5759 5759 5760 5761 5760 5760 5758 5760 5760 5760 5761 5762 5763
5840 5776 5764 5789 5801 5810 5842 5836 5840 5849 5828 5822 5828 5825 5824 5824 5817 5807 5804 5802 5795 5791 5790 5783 5780 5778 5779 5777 5775 5774 5771 5767 5762 5758 5754 5754 5754 5756 5756 5757 5759 5760 5759 5759 5759 5758 5759 5760 5762
5819 5781 5794 5824 5828 5831 5849 5841 5838 5824 5831 5815 5818 5828 5831 5823 5811 5800 5799 5793 5787 5786 5783 5781 5780 5779 5779 5776 5772 5769 5766 5763 5759 5756 5753 5751 5751 5751 5753 5753 5755 5758 5760 5759 5758 5758 5757 5756 5759
5830 5800 5824 5839 5844 5846 5843 5848 5845 5822 5818 5822 5817 5826 5825 5820 5810 5801 5797 5794 5789 5784 5784 5783 5779 5780 5778 5772 5767 5765 5759 5756 5753 5749 5748 5746 5746 5747 5747 5745 5749 5755 5757 5759 5757 5756 5756 5753 5755
5817 5839 5841 5851 5848 5846 5844 5859 5836 5847 5845 5853 5841 5837 5829 5818 5809 5801 5798 5795 5790 5785 5785 5783 5780 5778 5776 5771 5767 5764 5759 5757 5754 5757 5754 5747 5741 5742 5745 5743 5746 5750 5753 5757 5757 5755 5755 5752 5753
5829 5841 5855 5861 5860 5868 5871 5852 5851 5844 5850 5848 5839 5831 5825 5817 5814 5809 5807 5802 5798 5789 5787 5781 5777 5776 5773 5769 5765 5757 5756 5758 5758 5755 5752 5751 5744 5741 5743 5741 5744 5747 5750 5752 5756 5755 5754 5752 5754
5846 5848 5851 5860 5861 5863 5849 5850 5857 5839 5849 5836 5830 5820 5821 5816 5812 5805 5803 5801 5796 5793 5787 5781 5777 5777 5772 5767 5762 5757 5755 5758 5758 5756 5755 5747 5743 5737 5739 5741 5741 5744 5745 5747 5754 5754 5754 5754 5753
5846 5831 5845 5827 5835 5845 5851 5832 5835 5850 5840 5831 5827 5825 5816 5816 5817 5809 5807 5799 5796 5793 5789 5783 5780 5779 5775 5768 5761 5758 5756 5755 5754 5754 5749 5747 5742 5738 5737 5739 5736 5741 5744 5744 5748 5750 5751 5751 5751
5825 5830 5799 5823 5838 5846 5830 5806 5841 5848 5834 5805 5785 5822 5821 5811 5814 5812 5806 5800 5796 5790 5785 5783 5782 5778 5773 5770 5765 5761 5756 5754 5752 5751 5748 5745 5739 5736 5737 5737 5735 5740 5741 5740 5743 5746 5746 5747 5748
5814 5784 5776 5789 5836 5831 5822 5809 5835 5853 5851 5808 5785 5767 5806 5812 5810 5813 5810 5804 5797 5791 5786 5781 5778 5776 5773 5768 5761 5753 5752 5748 5746 5742 5740 5738 5734 5735 5736 5737 5735 5738 5739 5739 5737 5738 5740 5741 5744
5789 5783 5770 5774 5820 5837 5819 5814 5823 5842 5824 5800 5752 5733 5775 5777 5802 5811 5812 5806 5796 5793 5791 5784 5778 5774 5771 5768 5761 5754 5749 5746 5745 5743 5741 5740 5735 5731 5731 5734 5735 5736 5735 5734 5732 5732 5735 5737 5741
5819 5812 5788 5795 5821 5813 5811 5820 5826 5821 5812 5777 5780 5769 5757 5782 5786 5805 5812 5810 5799 5786 5787 5787 5778 5773 5769 5764 5757 5749 5743 5739 5733 5731 5730 5730 5731 5730 5728 5727 5732 5734 5732 5729 5731 5730 5729 5731 5738
5820 5810 5807 5821 5832 5804 5815 5831 5821 5830 5828 5841 5790 5764 5766 5773 5770 5780 5756 5778 5799 5792 5782 5781 5778 5771 5765 5760 5755 5747 5742 5736 5729 5724 5723 5723 5721 5720 5723 5728 5729 5731 5729 5728 5727 5726 5725 5730 5735
5814 5808 5810 5812 5833 5832 5829 5814 5817 5824 5823 5821 5802 5782 5793 5780 5756 5774 5749 5754 5774 5786 5783 5780 5775 5768 5764 5760 5752 5743 5735 5726 5718 5717 5717 5718 5719 5717 5721 5723 5725 5725 5728 5727 5726 5725 5726 5724 5730
5791 5829 5830 5824 5810 5776 5825 5754 5796 5801 5808 5820 5825 5835 5816 5800 5785 5789 5779 5780 5763 5783 5785 5781 5770 5766 5762 5758 5750 5738 5727 5715 5713 5712 5713 5715 5716 5716 5718 5721 5720 5722 5725 5726 5726 5727 5727 5727 5724
5808 5833 5824 5823 5797 5786 5794 5767 5780 5796 5795 5805 5815 5815 5821 5806 5802 5790 5783 5778 5788 5790 5778 5772 5764 5762 5758 5753 5744 5733 5723 5716 5716 5715 5714 5714 5715 5716 5718 5720 5719 5719 5721 5723 5723 5725 5725 5726 5723
5839 5825 5814 5816 5789 5740 5776 5774 5756 5781 5797 5800 5809 5808 5809 5800 5802 5803 5799 5796 5789 5785 5775 5766 5760 5757 5755 5746 5737 5727 5717 5713 5713 5715 5716 5717 5717 5718 5719 5719 5718 5717 5716 5719 5722 5725 5725 5724 5723
5825 5798 5739 5735 5735 5730 5794 5780 5777 5805 5820 5813 5801 5805 5803 5809 5802 5795 5791 5787 5779 5775 5767 5761 5757 5755 5752 5742 5733 5726 5716 5714 5714 5715 5717 5718 5718 5718 5718 5718 5716 5715 5715 5718 5722 5724 5725 5724 5721
5801 5786 5738 5726 5726 5743 5784 5773 5756 5785 5795 5816 5815 5815 5813 5807 5799 5791 5790 5785 5777 5774 5767 5764 5758 5752 5747 5739 5732 5725 5718 5714 5716 5717 5717 5719 5719 5718 5719 5718 5717 5716 5716 5718 5721 5722 5722 5723 5722
5800 5774 5799 5762 5770 5745 5759 5786 5789 5783 5791 5808 5807 5811 5806 5803 5796 5790 5789 5788 5784 5779 5770 5764 5757 5749 5745 5738 5733 5725 5721 5717 5715 5717 5719 5719 5720 5719 5719 5719 5718 5716 5717 5716 5718 5720 5719 5719 5718
5810 5818 5767 5756 5731 5719 5752 5745 5735 5755 5765 5792 5796 5794 5795 5798 5794 5788 5783 5782 5780 5775 5769 5763 5756 5746 5742 5738 5734 5726 5723 5719 5717 5715 5715 5717 5719 5718 5719 5719 5718 5716 5715 5717 5716 5717 5716 5714 5715
5797 5787 5788 5770 5754 5726 5722 5736 5772 5766 5765 5770 5779 5769 5793 5790 5789 5785 5783 5780 5775 5770 5766 5759 5751 5745 5740 5738 5734 5727 5723 5721 5717 5714 5714 5715 5715 5715 5715 5717 5716 5715 5715 5715 5714 5713 5712 5707 5705
5821 5797 5782 5740 5745 5756 5749 5737 5771 5766 5767 5776 5779 5773 5756 5789 5785 5783 5781 5779 5773 5764 5761 5758 5753 5747 5742 5739 5735 5728 5724 5722 5719 5715 5713 5713 5711 5710 5710 5709 5710 5710 5711 5711 5708 5706 5703 5700 5697